Regional Weather Roundup
Issued by NWS Goodland, KS

Home | Current Version | Previous Version | Graphics & Text | Print | Product List | Glossary On
Versions: 1 2 3 4 5 6 7 8 9 10 11 12 13 14 15 16 17 18 19 20 21 22 23 24 25 26 27 28 29 30 31 32 33 34 35 36 37 38 39 40 41 42 43 44 45 46 47 48 49 50
000
ASUS43 KGLD 250859
RWRGLD

GOODLAND FORECAST AREA HOURLY WEATHER ROUNDUP
NATIONAL WEATHER SERVICE GOODLAND KS
300 AM MDT SAT OCT 25 2014

...OFFICIAL OBSERVATIONS...

CITY           SKY/WX    TMP DP  RH WIND       PRES   REMARKS
GOODLAND KS    CLEAR     47  34  60 W3        30.12F
HILL CITY KS   CLEAR     46  41  82 CALM      30.06R
IMPERIAL NEB   CLEAR     43  33  68 CALM      30.09S
MCCOOK NEB     CLEAR     43  35  73 CALM      30.07S
AKRON CO       CLEAR     48  28  46 W10       30.16F
BURLINGTON CO  CLEAR     45  32  60 W8        30.14F
LIMON CO       CLEAR     39  30  70 N5        30.22S
$$

...UNOFFICIAL OBSERVATIONS...

CITY           SKY/WX    TMP DP  RH WIND       PRES   REMARKS
COLBY KS       CLEAR     46  39  76 W8        30.10R
NORTON KS      CLEAR     43  34  70 SW6       30.05R
SHARON SPRINGS   N/A     52  37  57 W5          N/A
KIT CARSON CO    N/A     47  31  53 CALM        N/A
YUMA CO          N/A     40  30  66 W5          N/A
$$



USA.gov is the U.S. government's official web portal to all federal, state and local government web resources and services.